This demonstration page uses our WeatherBlox Daily Observations layout. Learn more.

Left ArrowRight Arrow

Hourly Observations for October 7, 2016

Temp ( °F °C ) Dew Point ( °F °C ) Humidity (%) Winds ( mph kmh ) Pressure ( in mb ) Visibility ( mi km ) Precip ( " mm )
12:51 am 00:51 Clear 56 13.3 40 4.4 55 55 SE 6 9 29.90 1012 10 16 0.00 0.00
1:51 am 01:51 Clear 57 13.9 39 3.9 51 51 NE 5 7 29.90 1012 10 16 0.00 0.00
2:51 am 02:51 Clear 54 12.2 40 4.4 59 59 ENE 5 7 29.90 1013 10 16 0.00 0.00
3:51 am 03:51 Clear 51 10.6 40 4.4 66 66 Calm 29.92 1013 10 16 0.00 0.00
4:51 am 04:51 Clear 54 12.2 39 3.9 57 57 NNE 5 7 29.92 1013 10 16 0.00 0.00
5:51 am 05:51 Clear 52 11.1 40 4.4 64 64 SSW 5 7 29.95 1014 10 16 0.00 0.00
6:51 am 06:51 Sunny 54 12.2 40 4.4 59 59 Calm 29.97 1015 10 16 0.00 0.00
7:51 am 07:51 Sunny 63 17.2 39 3.9 41 41 SSE 7 11 29.98 1015 10 16 0.00 0.00
8:51 am 08:51 Sunny 71 21.7 35 1.7 27 27 SE 16 26 29.98 1015 10 16 0.00 0.00
9:51 am 09:51 Sunny 77 25 36 2.2 23 23 E 13 20 29.98 1015 10 16 0.00 0.00
10:51 am 10:51 Sunny 78 25.6 36 2.2 22 22 SSE 7 11 29.98 1015 10 16 0.00 0.00
11:51 am 11:51 Sunny 83 28.3 37 2.8 19 19 SE 10 17 29.96 1015 10 16 0.00 0.00
12:51 pm 12:51 Sunny 86 30 33 0.6 15 15 ESE 10 17 29.92 1013 10 16 0.00 0.00
1:51 pm 13:51 Sunny 88 31.1 33 0.6 14 14 SSE 16 26 29.88 1012 10 16 0.00 0.00
2:51 pm 14:51 Sunny 88 31.1 34 1.1 15 15 SE 10 17 29.87 1011 10 16 0.00 0.00
3:51 pm 15:51 Sunny 87 30.6 35 1.7 16 16 SSE 16 26 29.88 1012 10 16 0.00 0.00
4:51 pm 16:51 Sunny 85 29.4 35 1.7 17 17 SSE 14 22 29.88 1012 10 16 0.00 0.00
5:51 pm 17:51 Sunny 80 26.7 35 1.7 20 20 SE 7 11 29.90 1013 10 16 0.00 0.00
6:51 pm 18:51 Clear 77 25 34 1.1 21 21 SE 7 11 29.93 1014 10 16 0.00 0.00
7:51 pm 19:51 Clear 73 22.8 35 1.7 25 25 SE 8 13 29.96 1014 10 16 0.00 0.00
8:51 pm 20:51 Clear 70 21.1 36 2.2 29 29 E 6 9 29.96 1015 10 16 0.00 0.03
9:51 pm 21:51 Clear 69 20.6 37 2.8 31 31 ESE 8 13 29.96 1015 10 16 0.00 0.00
10:51 pm 22:51 Clear 69 20.6 40 4.4 35 35 ESE 7 11 29.97 1015 10 16 0.00 0.00
11:51 pm 23:51 Clear 69 20.6 43 6.1 39 39 ESE 9 15 29.95 1014 10 16 0.00 0.00

Powered by AerisWeather